Погода в Чагыле

Погода в Чагыле : погода сейчас, прогноз погоды и архив. Всё, что Вы хотите узнать о погоде в Чагыле!

Хотите узнать прогноз погоды в Чагыле? Тогда Вам сюда: Погода в Чагыле

Поиск расширенной информации на нашем сайте:

Другие новости

Новости СМИ2

Главная страница сайта

Новости сайта

03.07.2017

Напоминаем, что на нашем специализированном сайте Метеоцентр.Азия вы можете получить высокодетализированные автоматические прогнозы погоды по пунктам России, СНГ и мира в авиационном формате (включающие направление и скорость ветра, видимость, явления погоды, количество и форму облачности, нижнюю и верхнюю границу облачности).


Погода в Чагыле - сегодня

Время (UTC), дата Ветер
(°,м/с) 
Видим.   Явления Облачность Т
(°С)
Тd
(°С)
f(%) Тe
(°С)
Pmin
(гПа)
dP
(гПа)
Po
(мм)
O2
(г/м3)
Тmin Tmax R s Состояние
почвы
15 14.08.18 320 (СЗ) 20000 м    9/0 средняя 
[Ac trans]
+34.1 +18.1 39 +49  1008.4  0.1  747  263    +37.4       
18 14.08.18 тихо ()   20000 м    9/0 средняя 
[Ac trans]
+29.3 +19.3 55 +46  1010.1  1.5  748  268    +37.4       
21 14.08.18 тихо ()   20000 м    8/0 средняя 
[Ac trans]
+26.8 +18.4 60 +42  1011  0.8  749  270           
00 15.08.18 тихо ()   20000 м    8/0 средняя 
[Ac trans]
+23.9 +17.4 67 +37  1010.1  -1  748  273           
03 15.08.18 тихо ()   20000 м    6/0 средняя 
[Ac trans]
+24.6 +14.5 53 +32  1010.9  0.7  748  274           
06 15.08.18 070 (В) 20000 м    4/0 верхняя 
[Ci ing]
+33 +12.6 29 +38  1011.1  0.5  749  267  +23.9         
09 15.08.18 070 (В) 20000 м    ясно 
+37.4 +13.6 24 +44  1009.7  -1  748  262           
12 15.08.18 090 (В) 20000 м    ясно 
+39.3 +11 18 +42  1008.8  -0.9  747  261           
15 15.08.18 090 (В) 20000 м    4/0 верхняя 
[Ci ing]
+38.2 +11.7 21 +42  1008.2  -0.6  747  262    +39.7       
18 15.08.18 050 (СВ) 20000 м    ясно 
+33.3 +12.8 29 +38  1009.5  1.1  748  266    +39.7       
21 15.08.18 050 (СВ) 20000 м    ясно 
+29.4 +12.4 35 +34  1010.3  0.5  748  270           
00 16.08.18 050 (СВ) 20000 м    ясно 
+24 +8.5 37 +24  1010.3  -0.1  748  276           
06 16.08.18 090 (В) 20000 м    3/0 верхняя 
[Ci ing]
+33.3 +16.6 37 +45  1012.5  0.1  750  266  +23.5         
09 16.08.18 110 (В) 20000 м    3/0 верхняя 
[Ci ing]
+37.3 +16.9 30 +49  1011.6  -1.1  749  262           
12 16.08.18 110 (В) 20000 м    3/0 верхняя 
[Ci ing]
+38.6 +17.5 29 +52  1009.5  -1.6  748  260           
15 16.08.18 270 (З) 20000 м    4/0 средняя 
[Ac trans]
+34.9 +17.2 35 +48  1008.9  -0.7  747  263    +38.6       
18 16.08.18 тихо ()   20000 м    3/0 верхняя 
[Ci ing]
+31.2 +18.4 47 +46  1010.1  748  266    +38.6       
21 16.08.18 тихо ()   20000 м    3/0 верхняя 
[Ci ing]
+28.6 +17.2 50 +41  1011.1  0.8  749  269           
00 17.08.18 тихо ()   20000 м    4/0 верхняя 
[Ci ing]
+25.6 +16.2 56 +36  1010.9  -0.3  748  272           
03 17.08.18 тихо ()   20000 м    3/0 верхняя 
[Ci ing]
+25.8 +15.2 52 +35  1010.2  -0.6  748  272           
06 17.08.18 090 (В) 20000 м    3/0 верхняя 
[Ci ing]
+33.7 +14.4 31 +41  1009.7  -0.2  748  265  +25.2         
09 17.08.18 110 (В) 20000 м    4/0 верхняя 
[Ci ing]
+38.1 +15.4 26 +48  1007.8  -1.7  746  261           
12 17.08.18 110 (В) 20000 м    3/0 верхняя 
[Ci ing]
+39.8 +16.9 26 +52  1005.6  -2.2  745  258           
15 17.08.18 270 (З) 20000 м    3/0 верхняя 
[Ci ing]
+34.7 +15.2 31 +44  1005  -0.7  744  263    +39.8       
18 17.08.18 020 (С) 20000 м    ясно 
+31 +11 29 +34  1006  0.7  745  268    +39.8       
Время (UTC), дата Ветер
(°,м/с) 
Видим.   Явления Облачность Т
(°С)
Тd
(°С)
f(%) Тe
(°С)
Pmin
(гПа)
dP
(гПа)
Po
(мм)
O2
(г/м3)
Тmin Tmax R s Состояние
почвы

Для получения пояснительной информации подведите курсор к названию столбца.

ПОГОДА в Чагыле - архив

Всё, что Вы хотите узнать о погоде в Чагыле - удобно и подробно!

Выберите нужную дату (начиная с 1 января 2015* года) и нажмите кнопку "Найти".
Будут отображены архивные сводки погоды по пункту Чагыл, начиная с указанной даты.


Отображать данные в формате CSV (для использования в таблицах Excel)


Внимание! Наш архив погоды предназначен исключительно для личного некоммерческого использования в познавательных целях. Если Вам необходимы официальные справки о состоянии погоды (для производственных, юридических, коммерческих и т.п. целей), обращайтесь в органы Росгидромета.

*Примечание: данная дата относится к архиву по метеостанциям СССР (Россия, СНГ, Балтия).
Архив по метеостанциям Зарубежной Европы и Азии (кроме Китая) хранится 10 дней, по другим регионам земного шара (Китай, Африка, Америка, Австралия, Океания) - 1 день.

Чагыл - район местоположения метеостанции


Название, широта, долгота, высота метеостанции:
Чагыл 40.8°ш. 55.3°д. 115 м над ур. моря [Туркменистан]

Дополнительная информация

В oтличие oт бoльшинства пoгoдных сайтoв мы публикуем пoдрoбную метеoинфoрмацию в детальнoм прoфессиoнальнoм фoрмате.

Характеристики температуры и влажнoсти вoздуха измеряются на высoте 2 м в тени вдали oт зданий и деревьев.
Скoрoсть ветра измеряется на высoте 10 м (на урoвне рoста челoвека скoрoсть ветра ниже в 1.5-2 раза). Если метеoстанция нахoдится в гoрoде или в лесу, тo скoрoсть ветра занижена на 2-4 м/с пo сравнению с oткрытым местoм. Скoрoсть ветра над акватoриями крупных рек и oзёр, а также на вершинах хoлмoв на 2-5 м/с выше, чем в oбычных услoвиях.
Атмoсфернoе давление в разных тoчках местнoсти мoжет значительнo oтличаться oт давления на метеoстанции, в зависимoсти oт услoвий рельефа (при пoдъёме на 10 м давление пoнижается примернo на 1 мм рт.ст.).